GFSFLT2_500_temp_027.txt.gz
Temp
-18 -18 -18 -18 -17 -17 -17 -17 -17 -18 -19 -20 -21 -22 -23 -24 -24 -24 -23 -23 -23 -23 -24 -24 -24 -24 -24
-18 -18 -18 -18 -17 -17 -18 -18 -19 -21 -23 -24 -24 -24 -24 -24 -24 -23 -24 -24 -24 -23 -23 -23 -23 -23 -23
-18 -18 -18 -18 -18 -18 -19 -21 -23 -24 -25 -25 -24 -25 -25 -24 -24 -24 -24 -24 -24 -24 -23 -24 -24 -24 -24
-18 -18 -18 -18 -19 -20 -22 -24 -25 -26 -25 -25 -25 -25 -25 -24 -24 -24 -24 -23 -23 -23 -23 -23 -24 -24 -24
-18 -18 -19 -20 -21 -23 -24 -25 -26 -26 -24 -26 -24 -25 -25 -24 -24 -24 -24 -24 -24 -24 -24 -26 -27 -27 -27
-19 -20 -21 -23 -24 -25 -26 -25 -25 -28 -25 -25 -25 -25 -25 -24 -24 -25 -25 -24 -25 -26 -27 -27 -28 -28 -28
-20 -23 -24 -25 -25 -25 -25 -25 -26 -26 -25 -24 -25 -25 -25 -25 -24 -25 -25 -25 -26 -27 -27 -27 -27 -28 -28
-24 -24 -25 -25 -25 -24 -25 -25 -26 -26 -25 -24 -25 -25 -25 -25 -24 -25 -25 -26 -26 -26 -26 -27 -27 -27 -27
-25 -26 -25 -26 -26 -25 -25 -25 -26 -27 -27 -25 -25 -25 -25 -26 -24 -25 -25 -26 -26 -26 -26 -26 -26 -26 -26
-26 -26 -27 -27 -27 -27 -27 -27 -27 -27 -27 -26 -26 -25 -25 -27 -25 -25 -25 -26 -26 -26 -26 -26 -26 -26 -27
-26 -27 -27 -28 -28 -28 -28 -28 -28 -28 -28 -27 -27 -27 -25 -26 -27 -26 -26 -27 -27 -27 -27 -27 -27 -27 -27
-27 -27 -28 -28 -28 -28 -29 -29 -29 -29 -29 -28 -28 -27 -27 -27 -26 -27 -27 -27 -27 -27 -27 -27 -27 -27 -27
-27 -27 -28 -28 -28 -28 -29 -29 -29 -29 -29 -29 -28 -27 -27 -27 -26 -27 -26 -27 -27 -27 -27 -27 -27 -27 -27
-27 -27 -28 -28 -28 -29 -29 -29 -29 -30 -30 -29 -28 -27 -27 -27 -26 -26 -26 -26 -26 -26 -27 -27 -27 -27 -28
-27 -27 -28 -28 -29 -29 -29 -29 -29 -29 -29 -29 -29 -28 -27 -26 -26 -26 -26 -26 -26 -26 -27 -27 -28 -28 -28
-27 -28 -28 -29 -29 -29 -29 -29 -29 -29 -29 -29 -29 -28 -27 -26 -25 -26 -26 -26 -26 -26 -27 -27 -28 -28 -28
-27 -28 -29 -29 -29 -29 -29 -29 -29 -29 -29 -29 -28 -27 -27 -27 -26 -25 -26 -26 -26 -26 -27 -27 -27 -27 -27

GFSFLT2_500_temp_030.txt.gz
Temp
-17 -17 -18 -18 -18 -18 -17 -17 -17 -17 -17 -17 -17 -17 -19 -21 -22 -23 -24 -25 -24 -25 -25 -25 -24 -24 -23
-18 -18 -18 -18 -18 -17 -17 -17 -17 -17 -18 -20 -21 -22 -23 -24 -24 -25 -25 -25 -25 -25 -24 -24 -24 -24 -23
-18 -18 -18 -18 -18 -17 -17 -17 -18 -20 -22 -23 -25 -25 -25 -24 -24 -24 -25 -25 -25 -25 -25 -24 -24 -24 -23
-18 -18 -18 -18 -18 -17 -18 -20 -23 -24 -25 -26 -26 -25 -25 -25 -24 -24 -25 -25 -25 -25 -24 -24 -24 -24 -24
-18 -18 -18 -18 -18 -19 -21 -23 -25 -26 -25 -25 -25 -25 -26 -25 -24 -24 -24 -25 -24 -24 -24 -24 -24 -25 -26
-18 -18 -18 -19 -20 -23 -24 -25 -25 -26 -25 -25 -25 -25 -25 -25 -25 -24 -24 -24 -24 -24 -24 -25 -25 -26 -26
-18 -18 -19 -23 -24 -24 -24 -25 -26 -26 -25 -24 -26 -26 -26 -26 -25 -24 -24 -24 -24 -25 -25 -25 -25 -26 -26
-20 -21 -23 -25 -25 -25 -25 -26 -26 -27 -27 -25 -27 -27 -27 -27 -26 -25 -24 -24 -25 -25 -25 -25 -26 -26 -26
-23 -24 -25 -25 -26 -26 -26 -27 -27 -28 -28 -27 -28 -28 -28 -28 -27 -26 -24 -24 -25 -25 -25 -26 -26 -26 -26
-25 -25 -26 -26 -26 -27 -27 -27 -27 -28 -29 -28 -28 -28 -28 -29 -29 -27 -25 -24 -25 -25 -26 -26 -26 -26 -26
-25 -25 -26 -26 -27 -27 -27 -27 -28 -28 -28 -28 -28 -29 -29 -29 -29 -28 -27 -26 -25 -25 -25 -25 -26 -26 -26
-25 -26 -26 -27 -27 -27 -28 -28 -28 -28 -29 -29 -29 -29 -29 -29 -29 -29 -27 -26 -26 -26 -26 -26 -27 -27 -27
-26 -26 -27 -27 -27 -27 -28 -28 -29 -29 -29 -29 -29 -29 -29 -28 -28 -28 -28 -28 -26 -26 -26 -27 -27 -27 -27
-26 -27 -27 -27 -27 -28 -28 -29 -29 -30 -29 -29 -29 -29 -28 -28 -27 -27 -27 -27 -27 -27 -27 -27 -27 -27 -27
-26 -27 -27 -28 -28 -29 -29 -29 -29 -29 -29 -29 -29 -29 -28 -27 -27 -27 -27 -27 -26 -26 -26 -26 -27 -26 -27
-27 -27 -28 -28 -29 -30 -30 -30 -29 -29 -29 -29 -29 -29 -29 -27 -26 -27 -27 -26 -26 -26 -26 -26 -26 -27 -27
-27 -28 -28 -30 -30 -31 -30 -30 -30 -29 -29 -29 -28 -28 -28 -28 -26 -25 -26 -27 -27 -26 -26 -26 -26 -27 -27

GFSFLT2_500_temp_033.txt.gz
Temp
-17 -17 -17 -18 -18 -18 -18 -18 -18 -18 -18 -17 -17 -17 -17 -17 -18 -19 -21 -22 -22 -23 -24 -25 -25 -25 -25
-18 -18 -18 -18 -18 -18 -18 -18 -18 -18 -18 -17 -17 -18 -19 -21 -23 -23 -24 -24 -25 -25 -25 -25 -25 -25 -25
-18 -19 -18 -19 -18 -18 -18 -18 -18 -18 -18 -18 -20 -23 -24 -24 -24 -24 -24 -24 -24 -25 -25 -25 -25 -25 -25
-19 -19 -19 -19 -19 -18 -18 -18 -18 -19 -21 -23 -24 -24 -24 -24 -24 -24 -24 -24 -24 -25 -25 -25 -25 -25 -25
-19 -19 -19 -19 -18 -18 -18 -18 -21 -23 -24 -25 -25 -25 -26 -25 -25 -25 -24 -24 -24 -24 -25 -25 -25 -25 -25
-19 -19 -19 -19 -18 -19 -19 -22 -24 -25 -25 -26 -26 -26 -27 -26 -26 -26 -26 -24 -24 -24 -24 -24 -24 -24 -24
-19 -19 -19 -19 -19 -21 -24 -24 -25 -26 -26 -25 -26 -27 -27 -27 -27 -27 -27 -26 -24 -25 -25 -24 -24 -24 -24
-19 -19 -19 -20 -22 -24 -25 -25 -26 -26 -27 -25 -27 -27 -27 -28 -28 -28 -27 -27 -26 -25 -26 -25 -24 -24 -25
-20 -20 -21 -24 -25 -25 -25 -25 -26 -26 -27 -26 -27 -27 -27 -29 -29 -29 -28 -28 -27 -26 -26 -26 -25 -25 -25
-22 -24 -25 -25 -25 -26 -25 -25 -26 -26 -27 -26 -27 -28 -28 -29 -30 -30 -29 -29 -28 -27 -26 -26 -26 -25 -25
-25 -26 -26 -26 -26 -26 -26 -26 -26 -27 -27 -27 -28 -28 -28 -28 -29 -30 -30 -30 -29 -28 -26 -26 -26 -26 -25
-26 -26 -26 -26 -26 -27 -27 -27 -28 -28 -28 -28 -28 -29 -29 -29 -29 -30 -30 -29 -29 -28 -26 -26 -26 -26 -25
-26 -26 -26 -27 -27 -27 -28 -28 -29 -30 -29 -29 -29 -29 -29 -28 -28 -29 -29 -29 -28 -27 -27 -27 -26 -26 -26
-26 -26 -27 -27 -28 -28 -29 -30 -30 -30 -30 -29 -29 -29 -29 -29 -28 -28 -28 -28 -28 -27 -27 -27 -26 -26 -26
-26 -27 -27 -28 -29 -30 -30 -30 -31 -30 -30 -29 -29 -29 -29 -28 -28 -28 -28 -27 -27 -27 -27 -27 -27 -27 -26
-27 -27 -28 -29 -30 -31 -31 -31 -31 -30 -29 -29 -29 -29 -29 -27 -27 -27 -27 -27 -27 -27 -26 -26 -27 -27 -27
-27 -28 -29 -30 -30 -31 -31 -31 -31 -30 -29 -29 -28 -28 -28 -28 -27 -26 -26 -27 -27 -27 -26 -26 -26 -26 -26

GFSFLT2_500_temp_039.txt.gz
Temp
-16 -17 -17 -18 -18 -17 -18 -18 -18 -18 -18 -18 -19 -18 -18 -18 -18 -18 -19 -19 -19 -18 -18 -18 -18 -17 -17
-17 -18 -18 -18 -18 -18 -19 -19 -19 -19 -19 -19 -19 -19 -19 -19 -19 -19 -19 -19 -19 -19 -19 -18 -19 -20 -21
-18 -18 -18 -19 -19 -19 -19 -19 -19 -20 -19 -19 -19 -19 -19 -19 -19 -19 -19 -19 -20 -20 -21 -23 -23 -23 -24
-18 -19 -19 -19 -20 -20 -19 -19 -19 -19 -20 -20 -20 -19 -19 -19 -19 -20 -21 -23 -24 -24 -24 -24 -24 -24 -24
-19 -19 -20 -20 -20 -19 -19 -19 -20 -20 -20 -19 -19 -20 -20 -21 -23 -25 -25 -25 -25 -25 -25 -25 -25 -25 -25
-20 -20 -20 -19 -19 -20 -20 -20 -20 -20 -20 -20 -21 -23 -24 -26 -26 -26 -26 -26 -25 -25 -25 -25 -25 -25 -26
-20 -20 -20 -20 -20 -20 -20 -20 -20 -20 -21 -23 -25 -26 -26 -26 -26 -27 -26 -26 -26 -26 -26 -26 -26 -26 -27
-20 -20 -21 -20 -20 -20 -20 -20 -22 -24 -26 -25 -26 -26 -26 -26 -27 -27 -27 -27 -27 -26 -26 -27 -27 -28 -28
-21 -21 -21 -21 -21 -21 -22 -24 -25 -26 -27 -26 -26 -26 -26 -27 -28 -28 -28 -28 -27 -27 -27 -28 -28 -28 -29
-21 -21 -21 -22 -24 -25 -26 -26 -26 -26 -27 -26 -27 -27 -26 -28 -28 -30 -30 -30 -29 -29 -28 -28 -29 -28 -29
-22 -22 -25 -26 -27 -27 -26 -26 -26 -26 -27 -27 -27 -28 -29 -29 -30 -30 -30 -30 -30 -29 -29 -29 -29 -29 -29
-25 -26 -27 -27 -27 -27 -27 -27 -27 -27 -28 -28 -29 -30 -30 -30 -29 -30 -30 -29 -29 -29 -29 -29 -28 -28 -29
-27 -27 -27 -27 -27 -27 -28 -28 -28 -28 -28 -28 -29 -29 -29 -29 -29 -29 -29 -29 -28 -28 -28 -28 -28 -28 -28
-27 -27 -27 -27 -28 -27 -28 -28 -28 -29 -28 -28 -28 -28 -28 -28 -28 -28 -28 -29 -29 -27 -27 -28 -27 -27 -27
-27 -27 -28 -28 -28 -28 -28 -28 -27 -28 -28 -28 -27 -27 -27 -27 -27 -27 -27 -28 -28 -28 -27 -28 -28 -27 -27
-27 -28 -28 -28 -28 -28 -27 -27 -27 -27 -27 -27 -27 -28 -28 -28 -26 -26 -27 -27 -27 -27 -27 -27 -27 -27 -27
-27 -28 -28 -28 -28 -28 -27 -27 -27 -27 -27 -27 -27 -27 -27 -28 -28 -27 -25 -26 -26 -26 -26 -26 -26 -26 -26

GFSFLT2_500_temp_042.txt.gz
Temp
-17 -17 -17 -17 -17 -17 -17 -17 -18 -18 -18 -19 -19 -19 -19 -19 -19 -19 -19 -19 -19 -19 -19 -18 -18 -18 -18
-17 -17 -17 -18 -17 -18 -18 -18 -19 -19 -19 -19 -19 -19 -19 -19 -19 -19 -19 -19 -19 -19 -19 -19 -19 -19 -18
-17 -18 -17 -18 -18 -18 -18 -19 -19 -19 -20 -20 -20 -19 -19 -19 -19 -19 -19 -19 -19 -19 -19 -19 -19 -19 -19
-17 -18 -18 -19 -19 -18 -19 -19 -19 -20 -20 -20 -20 -20 -20 -20 -20 -20 -20 -20 -20 -20 -20 -21 -22 -23 -24
-18 -19 -19 -19 -19 -19 -19 -19 -20 -20 -20 -20 -20 -20 -20 -20 -20 -21 -21 -22 -23 -24 -25 -25 -25 -26 -26
-18 -19 -19 -19 -19 -20 -20 -20 -20 -20 -20 -21 -21 -21 -21 -22 -24 -26 -26 -26 -26 -26 -25 -25 -25 -25 -25
-19 -19 -20 -20 -20 -20 -20 -20 -20 -21 -21 -21 -22 -24 -26 -26 -27 -27 -27 -27 -27 -26 -26 -26 -25 -25 -25
-20 -20 -20 -20 -20 -20 -20 -21 -22 -23 -25 -26 -26 -26 -26 -27 -28 -28 -28 -28 -27 -27 -26 -26 -26 -26 -26
-20 -20 -20 -20 -21 -21 -23 -24 -26 -26 -27 -26 -26 -26 -27 -27 -28 -29 -29 -28 -28 -27 -27 -27 -27 -28 -28
-20 -20 -21 -21 -24 -25 -26 -26 -25 -26 -26 -26 -27 -28 -27 -29 -30 -30 -30 -30 -29 -29 -29 -29 -29 -28 -29
-21 -22 -25 -26 -26 -26 -26 -26 -26 -26 -26 -26 -27 -28 -28 -28 -30 -30 -30 -30 -29 -29 -29 -28 -28 -29 -29
-24 -25 -25 -26 -26 -26 -27 -27 -26 -26 -26 -26 -27 -27 -27 -28 -28 -29 -29 -29 -29 -29 -29 -28 -28 -28 -28
-25 -25 -26 -26 -27 -27 -27 -27 -27 -26 -26 -25 -26 -26 -27 -27 -27 -28 -27 -28 -28 -28 -27 -27 -27 -27 -28
-26 -26 -26 -27 -27 -27 -27 -27 -27 -27 -26 -26 -26 -26 -27 -27 -27 -27 -28 -28 -28 -28 -27 -28 -27 -27 -27
-26 -26 -26 -27 -27 -26 -26 -26 -26 -26 -27 -27 -27 -27 -27 -27 -27 -26 -26 -27 -27 -27 -27 -27 -27 -27 -27
-26 -26 -26 -27 -27 -27 -27 -27 -26 -27 -26 -26 -27 -27 -27 -28 -27 -26 -27 -26 -26 -26 -26 -26 -26 -27 -26
-26 -26 -26 -27 -27 -27 -27 -27 -27 -27 -27 -26 -26 -26 -26 -27 -27 -27 -26 -26 -26 -26 -25 -25 -26 -26 -26